Voltar ao catálogo

USA 120

AtivoMilitarLEO
NORAD 23907·PAYLOAD·🇺🇸 United States

Lançado May 12, 1996 de Vandenberg Space Force Base

Loading…

Próximas Passagens (próximas 24 horas)

TLE

AtualizadoSource: Space-Track

Época: Sep 14, 2026, 11:14 UTC

1 23907U 96029B   26257.46860622  .00000606  00000-0  11521-3 0  9998
2 23907  63.3194 318.9225 0853553  51.2423 316.1785 13.46662601115671

Acompanhe USA 120 em tempo real com AllMySat

Download on the App Store